Location: Florence
(33.9745°N, 118.2481°W)
Time: 18:47:57
(UTC+00:00)

Cosmos 1743 Rocket - Pass Details

Date: 23 March 2023
Orbit: 602 x 632 km, 82.6° (Epoch: 06 June)

Event Time Altitude Azimuth Distance (km) Brightness Sun altitude
Rises 13:03:21 0° 345° (NNW) 2,916 6.9 -11.0°
Reaches altitude 10° 13:05:40 10° 338° (NNW) 2,009 6.0 -10.6°
Maximum altitude 13:09:51 42° 268° (W) 909 4.0 -9.7°
Drops below altitude 10° 13:14:02 10° 198° (SSW) 2,005 5.9 -8.8°
Sets 13:16:21 0° 191° (S) 2,909 6.8 -8.4°
